Regional Weather Roundup
Issued by NWS

Home | Current Version | Previous Version | Graphics & Text | Print | Product List | Glossary Off
Versions: 1 2 3 4 5 6 7 8 9 10 11 12 13 14 15 16 17 18 19 20 21 22 23 24 25 26 27 28 29 30 31 32 33 34 35 36 37 38 39 40 41 42 43 44 45 46 47 48 49 50

000
ASUS43 KDMX 222306
RWRIA

WEATHER ROUNDUP FOR IOWA
NATIONAL WEATHER SERVICE DES MOINES IA
500 PM CST MON JAN 22 2018

NOTE: "FAIR" INDICATES FEW OR NO CLOUDS BELOW 12,000 FEET WITH NO
SIGNIFICANT WEATHER AND/OR OBSTRUCTIONS TO VISIBILITY.

* - THESE STATIONS ARE NOT NWS STATIONS...THUS NOT UNDER NWS
QUALITY CONTROL.  THEY ALSO DO NOT REPORT WEATHER SUCH
AS PRECIPITATION OR FOG.

IAZ001>003-012>014-020>022-031>034-043>046-230000-
   NORTHWEST IOWA

CITY           SKY/WX    TMP DP  RH WIND       PRES   REMARKS
CARROLL *      HVY RAIN  30  30 100 N28G36    29.54R VSB 1/4 WCI  16
CHEROKEE *     LGT SNOW  29  28  97 N18G30    29.66R VSB 1   WCI  16
DENISON *      LGT RAIN  30  30 100 N25G37    29.60R WCI  16
LE MARS *      LGT RAIN  28  28 100 N24G32    29.72R WCI  14
ORANGE CITY *  CLOUDY    28  28 100 N18G33    29.71R WCI  16
SHELDON *      CLOUDY    27  27 100 N29G36    29.68R FOG     WCI  11
SIOUX CITY     SNOW      29  28  96 N24       29.72R VSB 1/2 WCI  15
SPENCER        FOG       29  26  89 N25G40    29.65R VSB 1/2 WCI  14
STORM LAKE *   SNOW      28  27  93 N28G38    29.60R VSB 1/4 WCI  13
$$

IAZ055>058-069>071-079>083-090>094-230000-
   SOUTHWEST IOWA

CITY           SKY/WX    TMP DP  RH WIND       PRES   REMARKS
ATLANTIC *     LGT RAIN  32  32 100 N25G35    29.52R VSB 1/2 WCI  19
AUDUBON *      LGT SNOW  32  30  93 N21G30    29.53R VSB 3/4 WCI  20
CLARINDA *     LGT SNOW  34  34 100 N18G30    29.52R WCI  23
COUNCIL BLFS * LGT RAIN  30  32 100 N28G37    29.58R WCI  16
CRESTON *      CLOUDY    36  36 100 CALM      29.44R FOG
HARLAN  *      FLURRIES  32  32 100 N25G33    29.59R WCI  19
LAMONI         CLOUDY    35  33  92 CALM      29.43R
RED OAK *      LGT SNOW  32  32 100 N21G36    29.54R WCI  20
SHENANDOAH *   LGT RAIN  32  32 100 N22G32    29.56R WCI  19
$$

IAZ047>049-059>061-072>074-084-230000-
   CENTRAL IOWA

CITY           SKY/WX    TMP DP  RH WIND       PRES   REMARKS
AMES           CLOUDY    35  35 100 NE10      29.47R FOG     WCI  27
ANKENY *       CLOUDY    37  36  93 CALM      29.47R FOG
BOONE *        LGT RAIN  34  34 100 NE18      29.47R VSB 1   WCI  23
CHARITON *     CLOUDY    36  36 100 SE6       29.43S WCI  31
DES MOINES     LGT RAIN  38  36  92 CALM      29.45R FOG
GRINNELL*      MOCLDY    38  33  81 S8        29.44S WCI  32
KNOXVILLE *    CLOUDY    37  34  87 S6        29.42S WCI  33
MARSHALLTOWN   CLOUDY    37  35  92 N14       29.45R WCI  28
NEWTON *       CLOUDY    37  34  87 W6        29.46R WCI  33
PELLA *        CLOUDY    38  33  80 S5        29.46R WCI  35
PERRY *        DRIZZLE   35  35  99 N16       29.48R WCI  25
$$

IAZ004>006-015-016-023>025-035-036-230000-
   NORTH CENTRAL IOWA

CITY           SKY/WX    TMP DP  RH WIND       PRES   REMARKS
ALGONA *       CLOUDY    30 N/A N/A N22G31    29.57R FOG     WCI  17
CLARION *      CLOUDY    34  34 100 N20G29    29.52R WCI  22
ESTHERVILLE    FOG       27  27 100 N30G40    29.64R VSB 1/4 WCI  11
FORT DODGE *   FLURRIES  31  29  92 N16G29    29.54R WCI  20
MASON CITY     CLOUDY    32  30  92 N23G33    29.53R WCI  19
FOREST CITY *  CLOUDY    32  32 100 N16G25    29.55R WCI  21
WEBSTER CITY * CLOUDY    34  32  93 N22       29.48R FOG     WCI  22
IOWA FALLS *   CLOUDY    35  33  95 NE14G23   29.48R WCI  25
$$

IAZ007>011-017>019-026>030-037>042-050>054-066-230000-
   NORTHEAST IOWA

CITY           SKY/WX    TMP DP  RH WIND       PRES   REMARKS
CEDAR RAPIDS   MOCLDY    41  32  70 SW3       29.45R
CHARLES CITY * MIX PCPN  34  34 100 NE13G18   29.50R WCI  25
CLINTON *      LGT RAIN  43  36  76 W16       29.47R
DECORAH *      CLOUDY    34  34 100 N12       29.49R FOG     WCI  25
DUBUQUE        FOG       39  39 100 N8        29.45S VSB 1/2 WCI  33
MONTICELLO *   CLOUDY    43  39  87 CALM      29.46R
OELWEIN *      MIX PCPN  36  36 100 NE13      29.48R WCI  27
WATERLOO       CLOUDY    35  33  92 NE8       29.48R WCI  29
$$

IAZ064-065-067-068-078-230000-
   EAST CENTRAL IOWA

CITY           SKY/WX    TMP DP  RH WIND       PRES   REMARKS
DAVENPORT      CLOUDY    44  32  62 W10       29.49R
IOWA CITY      CLOUDY    43  31  62 SW6       29.48R
MT. PLEASANT * CLOUDY    37  32  81 SW8       29.48R WCI  31
MUSCATINE *    MOCLDY    43  30  61 SW10      29.48R
QUAD CITIES    CLOUDY    45  30  55 W12       29.47R
$$

IAZ062-063-075>077-085>089-095>099-230000-
   SOUTHEAST IOWA

CITY           SKY/WX    TMP DP  RH WIND       PRES   REMARKS
BURLINGTON     CLOUDY    41  29  62 SW13      29.48R
FAIRFIELD *    CLOUDY    37  34  87 SW6       29.47R WCI  33
FORT MADISON * CLOUDY    41  30  65 SW12      29.49R
KEOKUK *       CLOUDY    41  32  70 S16G25    29.48R
OSKALOOSA *    LGT RAIN  37  34  90 S5        29.46R WCI  33
OTTUMWA        CLOUDY    37  34  89 S8        29.46R WCI  31
WASHINGTON *   CLOUDY    39  37  93 SW8       29.49R WCI  34
$$

ABBREVIATIONS USED IN REMARKS
   TC - TEMPERATURES IN CELSIUS
  WCI - WIND CHILL INDEX
   HX - HEAT INDEX
  VSB - VISIBILITY
$$





USA.gov is the U.S. government's official web portal to all federal, state and local government web resources and services.